STARLINK-1757 (46339 NORAD) Tracking and Keplerian Element Data

This shows tracking and keplerian element data for the satellite.

Feedback or suggestion? Click here.




ElementValue
Catalog46339
NameSTARLINK-1757
Epoch Orbit1425
Epoch Day333.25002315
Epoch Year2020
RAAN9.8866
Inclination52.9985
Eccentricity0.0009628
Argument of Perigee302.3473
Mean Anonmoly41.0704
Mean Motion15.57045959
Decay Rate-0.00017384
L11 46339U 20062Q 20333.25002315 -.00017384 00000-0 -22924-3 0 9991
L22 46339 52.9985 9.8866 0009628 302.3473 41.0704 15.57045959 14257

Live tracking and technical data element details for STARLINK-1757 (NORAD 46339). STARLINK-1757 can be tracked NOW for your location showing map with azimuth and elevation plus other details from your city location.

Track the satellite on the map from your city or location and see movement details for azimuth, elevation, latitude, longitude, range, height, and movement on the map or in text.







IsCatalogInMostPopularTable: catalog: 46339, numindb: 19
Update: records affected: 1



GetName: 46339 STARLINK-1757

Hit Count: updated at: Sun, 29 Nov 2020 11:07:26 GMT